Retour au catalogue

GSLV R/B

ActifHEO
NORAD 62851·ROCKET BODY·🇮🇳 India

Lancé Jan 29, 2025 depuis Satish Dhawan Space Centre

Loading…

Prochains Passages (prochaines 24 heures)

TLE

FraisSource: Space-Track

Époque: Sep 10, 2026, 01:03 UTC

1 62851U 25020B   26253.04389526  .00055308 -43740-6  63666-3 0  9992
2 62851  20.4448 195.6051 6999744 263.2342  19.6970  2.70268520 14158

Suivez GSLV R/B en temps réel avec AllMySat

Download on the App Store